Terug naar catalogus

THORAD AGENA D DEB

ActiefSSO
NORAD 4854·DEBRIS·🇺🇸 United States

Gelanceerd Apr 8, 1970 vanaf Vandenberg Space Force Base

Loading…

Volgende Passages (komende 24 uur)

TLE

VersSource: Space-Track

Epoch: Sep 13, 2026, 11:17 UTC

1 04854U 70025EJ  26256.47064992  .00000180  00000-0  31150-3 0  9999
2 04854  99.3540  86.9738 0017087 314.9616  74.4792 13.57113803784281

Volg THORAD AGENA D DEB in realtime met AllMySat

Download on the App Store